When you browse on this site, cookies collect data to enhance your experience and personalize the content and advertising you see.
Visit our Privacy Policy to learn more. By continuing to use the site, you agree to this use of cookies and data.
  • In United Kingdom
  • List of Countries
  • For 7 days
  • Water Temperature
  • Satellite Maps
  • Weather Map
  • Weather Widgets
  • user-avatar
    Login

    Hourly Weather Bolgatanga

    Today, 19 November, Monday

    Time Temperature Precipitation Wind Pressure Humidity
    00:00 +30°C° 0 mm 0 mps 741 mmHg 40%
    01:00 +32°C° 0 mm 1 mps 741 mmHg 40%
    02:00 +31°C° 0 mm 1 mps 740 mmHg 40%
    03:00 +31°C° 0 mm 1 mps 740 mmHg 40%
    04:00 +31°C° 0 mm 1 mps 740 mmHg 41%
    05:00 +30°C° 0 mm 1 mps 740 mmHg 42%
    06:00 +30°C° 0 mm 1 mps 741 mmHg 43%
    07:00 +32°C° 0 mm 1 mps 741 mmHg 40%
    08:00 +35°C° 0 mm 2 mps 742 mmHg 37%
    09:00 +36°C° 0 mm 2 mps 742 mmHg 34%
    10:00 +38°C° 0 mm 2 mps 742 mmHg 30%
    11:00 +40°C° 0 mm 2 mps 741 mmHg 27%
    12:00 +41°C° 0 mm 1 mps 741 mmHg 24%
    13:00 +42°C° 0 mm 1 mps 740 mmHg 22%
    14:00 +42°C° 0 mm 1 mps 739 mmHg 21%
    15:00 +42°C° 0 mm 1 mps 738 mmHg 20%
    16:00 +40°C° 0 mm 1 mps 739 mmHg 22%
    17:00 +39°C° 0 mm 1 mps 739 mmHg 24%
    18:00 +36°C° 0 mm 1 mps 739 mmHg 25%
    19:00 +36°C° 0 mm 1 mps 739 mmHg 26%
    20:00 +35°C° 0 mm 1 mps 740 mmHg 27%
    21:00 +34°C° 0 mm 1 mps 741 mmHg 27%
    22:00 +34°C° 0 mm 1 mps 741 mmHg 28%
    23:00 +34°C° 0 mm 1 mps 741 mmHg 28%

    Tomorrow, 20 November, Tuesday

    Time Temperature Precipitation Wind Pressure Humidity
    00:00 +33°C° 0 mm 1 mps 741 mmHg 28%
    01:00 +33°C° 0 mm 1 mps 740 mmHg 29%
    02:00 +32°C° 0 mm 1 mps 740 mmHg 30%
    03:00 +32°C° 0 mm 1 mps 740 mmHg 32%
    04:00 +31°C° 0 mm 1 mps 740 mmHg 33%
    05:00 +31°C° 0 mm 1 mps 740 mmHg 34%
    06:00 +30°C° 0 mm 1 mps 741 mmHg 35%
    07:00 +32°C° 0 mm 2 mps 741 mmHg 33%
    08:00 +35°C° 0 mm 2 mps 742 mmHg 30%
    09:00 +37°C° 0 mm 2 mps 743 mmHg 28%
    10:00 +38°C° 0 mm 2 mps 742 mmHg 25%
    11:00 +40°C° 0 mm 2 mps 742 mmHg 23%
    12:00 +41°C° 0 mm 2 mps 741 mmHg 21%
    13:00 +42°C° 0 mm 2 mps 741 mmHg 20%
    14:00 +42°C° 0 mm 1 mps 740 mmHg 18%
    15:00 +42°C° 0 mm 1 mps 739 mmHg 17%
    16:00 +40°C° 0 mm 2 mps 739 mmHg 17%
    17:00 +39°C° 0 mm 2 mps 740 mmHg 17%
    18:00 +37°C° 0 mm 2 mps 740 mmHg 18%
    19:00 +36°C° 0 mm 2 mps 740 mmHg 17%
    20:00 +35°C° 0 mm 2 mps 741 mmHg 17%
    21:00 +34°C° 0 mm 2 mps 741 mmHg 16%
    22:00 +34°C° 0 mm 2 mps 741 mmHg 16%
    23:00 +32°C° 0 mm 2 mps 741 mmHg 17%

    Day after tomorrow, 21 November, Wednesday

    Time Temperature Precipitation Wind Pressure Humidity
    00:00 +32°C° 0 mm 2 mps 741 mmHg 17%
    01:00 +31°C° 0 mm 2 mps 741 mmHg 17%
    02:00 +31°C° 0 mm 2 mps 740 mmHg 17%
    03:00 +30°C° 0 mm 3 mps 740 mmHg 17%
    04:00 +30°C° 0 mm 2 mps 740 mmHg 17%
    05:00 +30°C° 0 mm 2 mps 741 mmHg 17%
    06:00 +30°C° 0 mm 2 mps 741 mmHg 17%
    07:00 +31°C° 0 mm 2 mps 742 mmHg 16%
    08:00 +34°C° 0 mm 2 mps 742 mmHg 16%
    09:00 +35°C° 0 mm 2 mps 743 mmHg 15%
    10:00 +37°C° 0 mm 2 mps 743 mmHg 14%
    11:00 +38°C° 0 mm 2 mps 742 mmHg 13%
    12:00 +40°C° 0 mm 3 mps 742 mmHg 12%
    13:00 +40°C° 0 mm 3 mps 741 mmHg 12%
    14:00 +40°C° 0 mm 3 mps 740 mmHg 12%
    15:00 +42°C° 0 mm 3 mps 739 mmHg 12%
    16:00 +39°C° 0 mm 3 mps 739 mmHg 13%
    17:00 +37°C° 0 mm 3 mps 740 mmHg 14%
    18:00 +35°C° 0 mm 2 mps 740 mmHg 15%
    19:00 +35°C° 0 mm 2 mps 740 mmHg 15%
    20:00 +34°C° 0 mm 2 mps 741 mmHg 15%
    21:00 +32°C° 0 mm 1 mps 741 mmHg 15%
    22:00 +32°C° 0 mm 1 mps 741 mmHg 15%
    23:00 +31°C° 0 mm 1 mps 741 mmHg 16%

    22 November, Thursday

    Time Temperature Precipitation Wind Pressure Humidity
    00:00 +31°C° 0 mm 1 mps 741 mmHg 16%
    01:00 +31°C° 0 mm 2 mps 740 mmHg 16%
    02:00 +30°C° 0 mm 2 mps 740 mmHg 17%
    03:00 +29°C° 0 mm 2 mps 740 mmHg 17%
    04:00 +29°C° 0 mm 2 mps 740 mmHg 17%
    05:00 +28°C° 0 mm 2 mps 741 mmHg 18%
    06:00 +27°C° 0 mm 2 mps 741 mmHg 19%
    07:00 +30°C° 0 mm 2 mps 742 mmHg 16%
    08:00 +33°C° 0 mm 3 mps 742 mmHg 14%
    09:00 +36°C° 0 mm 3 mps 743 mmHg 11%
    10:00 +38°C° 0 mm 3 mps 742 mmHg 11%
    11:00 +40°C° 0 mm 4 mps 742 mmHg 10%
    12:00 +42°C° 0 mm 4 mps 741 mmHg 9%
    13:00 +42°C° 0 mm 4 mps 740 mmHg 9%
    14:00 +42°C° 0 mm 3 mps 739 mmHg 9%
    15:00 +43°C° 0 mm 3 mps 739 mmHg 9%
    16:00 +40°C° 0 mm 3 mps 739 mmHg 10%
    17:00 +38°C° 0 mm 2 mps 739 mmHg 11%
    18:00 +36°C° 0 mm 2 mps 739 mmHg 12%
    19:00 +34°C° 0 mm 1 mps 740 mmHg 12%
    20:00 +33°C° 0 mm 1 mps 740 mmHg 13%
    21:00 +29°C° 0 mm 0 mps 741 mmHg 14%
    22:00 +31°C° 0 mm 1 mps 740 mmHg 14%
    23:00 +30°C° 0 mm 1 mps 740 mmHg 15%

    23 November, Friday

    Time Temperature Precipitation Wind Pressure Humidity
    00:00 +30°C° 0 mm 1 mps 740 mmHg 16%
    01:00 +29°C° 0 mm 1 mps 740 mmHg 16%
    02:00 +29°C° 0 mm 1 mps 740 mmHg 16%
    03:00 +28°C° 0 mm 1 mps 739 mmHg 16%
    04:00 +27°C° 0 mm 1 mps 740 mmHg 19%
    05:00 +27°C° 0 mm 1 mps 740 mmHg 21%
    06:00 +26°C° 0 mm 1 mps 741 mmHg 24%
    07:00 +28°C° 0 mm 1 mps 741 mmHg 25%
    08:00 +31°C° 0 mm 1 mps 742 mmHg 26%
    09:00 +33°C° 0 mm 1 mps 742 mmHg 27%
    10:00 +35°C° 0 mm 1 mps 742 mmHg 24%
    11:00 +38°C° 0 mm 2 mps 741 mmHg 22%
    12:00 +41°C° 0 mm 2 mps 741 mmHg 19%
    13:00 +41°C° 0 mm 2 mps 740 mmHg 19%
    14:00 +41°C° 0 mm 2 mps 739 mmHg 18%
    15:00 +41°C° 0 mm 2 mps 738 mmHg 18%
    16:00 +40°C° 0 mm 2 mps 738 mmHg 20%
    17:00 +37°C° 0 mm 1 mps 739 mmHg 23%
    18:00 +35°C° 0 mm 1 mps 739 mmHg 25%
    19:00 +34°C° 0 mm 1 mps 739 mmHg 26%
    20:00 +34°C° 0 mm 1 mps 740 mmHg 28%
    21:00 +33°C° 0 mm 1 mps 740 mmHg 29%
    22:00 +32°C° 0 mm 1 mps 740 mmHg 30%
    23:00 +32°C° 0 mm 1 mps 740 mmHg 30%

    24 November, Saturday

    Time Temperature Precipitation Wind Pressure Humidity
    00:00 +31°C° 0 mm 1 mps 740 mmHg 31%
    01:00 +31°C° 0 mm 1 mps 740 mmHg 31%
    02:00 +31°C° 0 mm 1 mps 740 mmHg 31%
    03:00 +30°C° 0 mm 1 mps 739 mmHg 32%
    04:00 +30°C° 0 mm 1 mps 740 mmHg 32%
    05:00 +30°C° 0 mm 1 mps 740 mmHg 33%
    06:00 +29°C° 0 mm 1 mps 741 mmHg 33%
    07:00 +31°C° 0 mm 2 mps 741 mmHg 34%
    08:00 +34°C° 0 mm 2 mps 742 mmHg 35%
    09:00 +36°C° 0 mm 2 mps 742 mmHg 36%
    10:00 +38°C° 0 mm 2 mps 742 mmHg 31%
    11:00 +40°C° 0 mm 1 mps 741 mmHg 25%
    12:00 +43°C° 0 mm 1 mps 740 mmHg 20%
    13:00 +43°C° 0 mm 1 mps 740 mmHg 19%
    14:00 +43°C° 0 mm 1 mps 739 mmHg 17%
    15:00 +43°C° 0 mm 2 mps 739 mmHg 16%
    16:00 +41°C° 0 mm 2 mps 739 mmHg 17%
    17:00 +39°C° 0 mm 2 mps 739 mmHg 18%
    18:00 +38°C° 0 mm 2 mps 739 mmHg 19%
    19:00 +37°C° 0 mm 2 mps 740 mmHg 20%
    20:00 +36°C° 0 mm 2 mps 740 mmHg 21%
    21:00 +35°C° 0 mm 2 mps 741 mmHg 22%
    22:00 +33°C° 0 mm 1 mps 740 mmHg 22%
    23:00 +33°C° 0 mm 1 mps 740 mmHg 23%
    Show more